Home   Weather   Zeitz   Past weeks

Flag for Germany Past Weather in Zeitz, Saxony-Anhalt, Germany — Yesterday and Last 2 Weeks

Now
45 °F

Clear.


Feels Like: 37 °F
Forecast: 41 / 59 °F
Wind: 16 mph from East

Location: Leipzig-Schkeuditz

Current Time: May 1, 2017 at 12:59:56 am

Latest Report: May 1, 2017 at 12:20 am


Visibility: 10 mi

Pressure: 29.95 "Hg

Humidity: 71%

Dew Point: 36 °F

Location of ZeitzLocation

Past Weather in Zeitz — Graph

°F

Zeitz Temperature Yesterday

Maximum temperature yesterday: 59 °F (at 3:50 pm)
Minimum temperature yesterday: 32 °F (at 6:20 am)
Average temperature yesterday: 47 °F

High & Low Weather Summary for the Past Weeks

 TemperatureHumidityPressure
High59 °F (Apr 24, 4:50 pm)100% (Apr 17, 5:20 am)30.60 "Hg (Apr 17, 5:20 am)
Low28 °F (Apr 20, 3:50 am)36% (Apr 30, 4:20 pm)29.59 "Hg (Apr 25, 5:50 am)
Average43 °F69%30.07 "Hg
* Reported Apr 15 11:20 pm — Apr 30 11:50 pm, Zeitz, Weather by CustomWeather, © 2017

Note: Actual official high and low records may vary slightly from our data, if they occured in-between our weather recording intervals... More about our weather records

Advertising

Zeitz Weather History for the Previous 24 Hours

Scroll right to see more
 ConditionsComfort  
Time TempWeatherWind HumidityBarometerVisibility
11:50 pm
Sun, Apr 30
45 °FClear.14 mph71%29.95 "Hg10 mi
11:20 pm46 °FClear.13 mph66%29.95 "Hg10 mi
10:50 pm46 °FClear.13 mph66%29.95 "Hg10 mi
10:20 pm48 °FClear.14 mph62%29.95 "Hg10 mi
9:50 pm48 °FClear.18 mph62%29.95 "Hg10 mi
9:20 pm48 °FClear.15 mph62%29.95 "Hg10 mi
8:50 pm50 °FClear.17 mph54%29.95 "Hg10 mi
8:20 pm54 °FSunny.20 mph47%29.95 "Hg10 mi
7:50 pm54 °FSunny.20 mph51%29.95 "Hg10 mi
7:20 pm55 °FSunny.22 mph47%29.92 "Hg10 mi
6:50 pm57 °FSunny.23 mph41%29.92 "Hg10 mi
6:20 pm57 °FSunny.20 mph41%29.95 "Hg10 mi
5:50 pm59 °FSunny.21 mph39%29.95 "Hg10 mi
5:20 pm59 °FPassing clouds.22 mph39%29.98 "HgN/A
4:50 pm59 °FSunny.21 mph36%29.98 "Hg10 mi
4:20 pm59 °FSunny.21 mph36%29.98 "Hg10 mi
3:50 pm59 °FPassing clouds.15 mph39%30.01 "HgN/A
3:20 pm57 °FPassing clouds.15 mph39%30.01 "HgN/A
2:50 pm57 °FPassing clouds.18 mph39%30.04 "HgN/A
2:20 pm55 °FPassing clouds.17 mph41%30.04 "HgN/A
1:50 pm55 °FPassing clouds.18 mph44%30.04 "HgN/A
1:20 pm55 °FPassing clouds.17 mph41%30.07 "HgN/A
12:50 pm54 °FPassing clouds.18 mph44%30.07 "HgN/A
12:20 pm54 °FPassing clouds.18 mph41%30.07 "HgN/A
11:50 am54 °FPassing clouds.17 mph44%30.09 "HgN/A
11:20 am54 °FPassing clouds.18 mph41%30.09 "HgN/A
10:50 am52 °FPassing clouds.16 mph47%30.09 "HgN/A
10:20 am50 °FPassing clouds.15 mph50%30.12 "HgN/A
9:50 am50 °FSunny.14 mph50%30.12 "Hg10 mi
9:20 am48 °FSunny.14 mph58%30.12 "Hg10 mi
8:50 am46 °FSunny.14 mph62%30.12 "Hg10 mi
8:20 am45 °FSunny.12 mph66%30.12 "Hg10 mi
7:50 am41 °FSunny.10 mph70%30.12 "Hg10 mi
7:20 am39 °FSunny.10 mph75%30.12 "Hg10 mi
6:50 am37 °FSunny.12 mph75%30.12 "Hg10 mi
6:20 am32 °FSunny.9 mph87%30.12 "Hg10 mi
5:50 am34 °FSunny.10 mph81%30.09 "Hg10 mi
5:20 am36 °FClear.10 mph81%30.09 "Hg10 mi
4:50 am36 °FClear.10 mph75%30.09 "Hg10 mi
4:20 am36 °FClear.9 mph81%30.09 "Hg10 mi
3:50 am34 °FClear.9 mph81%30.09 "Hg10 mi
3:20 am34 °FClear.9 mph81%30.09 "Hg10 mi
2:50 am37 °FClear.9 mph75%30.09 "Hg10 mi
2:20 am37 °FClear.7 mph81%30.09 "Hg10 mi
1:50 am37 °FClear.8 mph81%30.09 "Hg10 mi
1:20 am37 °FClear.8 mph75%30.09 "Hg10 mi
12:50 am39 °FClear.9 mph70%30.09 "Hg10 mi
12:20 am39 °FClear.8 mph75%30.09 "Hg10 mi
Weather by CustomWeather, © 2017

See weather overviewHow to use our weather pages